Location: Izdebno
(52.6670°N, 16.2170°E)
Time: 18:49:31
(UTC+01:00)

Transit 2A - Pass Details

Date: 06 February 2023
Orbit: 591 x 964 km, 66.7° (Epoch: 21 March)

Event Time Altitude Azimuth Distance (km) Brightness Sun altitude
Rises 02:38:35 0° 311° (NW) 3,525 - -42.8°
Reaches altitude 10° 02:41:57 10° 292° (WNW) 2,632 - -42.4°
Maximum altitude 02:45:40 17° 255° (WSW) 2,216 - -42.0°
Drops below altitude 10° 02:49:28 10° 218° (SW) 2,690 - -41.5°
Sets 02:52:59 0° 199° (SSW) 3,639 - -41.0°
